Location: Góry Miechowskie
(50.3599°N, 20.1803°E)
Time: 16:23:27
(UTC+00:00)

Vanguard 2 - Pass Details

Date: 17 September 2024
Orbit: 552 x 2910 km, 32.9° (Epoch: 15 October)

Event Time Altitude Azimuth Distance (km) Brightness Sun altitude
Rises 03:10:30 0° 229° (SW) 3,166 - -11.4°
Exits shadow 03:12:37 - 216° (SW) 2,642 9.8 -11.1°
Reaches altitude 10° 03:13:24 10° 209° (SSW) 2,498 9.7 -11.0°
Maximum altitude 03:17:14 18° 168° (SSE) 2,363 10.0 -10.4°
Drops below altitude 10° 03:22:11 10° 131° (SE) 3,391 11.3 -9.7°
Sets 03:27:08 0° 115° (ESE) 4,883 12.5 -8.9°
